Wind_Speed
13 12 10 9 9 9 8 7 6 6 6 5 5 6 6 6 7 7 6 6 5 5 5 4 5 5 4 4 4 4 3 4 4 4 4 4 5 5 6 6 5 5
15 13 12 12 11 11 9 8 6 6 6 6 5 5 5 5 6 6 6 5 5 5 5 5 5 5 5 5 5 4 4 4 5 5 5 5 5 6 6 6 6 6
16 15 14 14 12 11 11 9 8 7 7 7 6 6 6 6 5 5 5 5 4 4 4 4 5 5 5 5 5 5 5 5 5 5 6 7 6 6 7 8 8 8
18 17 16 15 14 13 12 11 9 8 8 8 6 6 6 6 6 6 6 5 4 4 4 4 4 4 4 5 5 5 5 5 5 4 6 8 7 6 8 8 9 9
20 18 17 17 16 15 14 12 10 9 9 8 7 7 7 7 7 7 6 6 5 4 4 4 5 5 5 5 6 6 6 5 5 5 7 8 7 6 7 8 9 9
21 19 18 17 17 16 15 13 11 11 11 10 9 9 9 9 9 8 7 7 6 5 5 5 5 6 6 6 6 6 6 6 6 6 6 7 7 7 7 7 8 9
22 21 19 18 18 17 16 15 13 13 13 12 11 11 11 11 10 10 9 8 7 7 6 6 7 7 7 7 7 6 5 6 7 6 6 7 7 7 7 7 7 8
24 22 20 19 18 18 18 17 16 16 15 14 14 13 13 13 12 12 11 10 9 8 8 8 8 8 8 8 7 6 6 6 7 7 7 7 7 7 7 7 7 8
24 23 22 21 20 20 19 19 18 17 17 16 16 15 15 15 14 13 14 13 11 10 10 10 9 9 9 9 8 8 7 7 8 8 7 7 7 6 7 7 7 8
23 22 22 21 22 22 21 21 20 19 19 19 18 18 18 17 16 15 15 15 14 13 13 12 11 11 10 10 10 10 9 9 9 9 8 7 7 6 6 7 7 7
22 22 21 21 21 22 22 23 22 21 20 20 19 19 20 19 18 17 17 17 17 16 15 14 13 13 12 12 12 12 11 11 11 10 9 8 8 7 7 7 7 7
23 22 22 21 21 21 22 22 22 22 21 21 20 20 21 21 20 20 19 19 19 18 17 17 16 16 15 14 14 14 13 13 13 12 11 10 10 9 9 8 8 8
24 23 23 22 22 22 22 21 21 21 21 22 21 22 23 23 22 22 21 21 20 20 20 20 19 18 17 17 16 15 15 15 14 14 13 12 12 11 11 10 10 10
25 24 23 22 22 22 21 21 21 21 21 21 22 23 25 25 25 24 23 22 22 22 22 22 22 21 20 19 19 18 17 16 16 15 14 14 14 13 13 13 12 12
26 26 25 24 23 22 22 22 21 21 22 22 22 24 25 26 26 26 25 24 23 23 24 24 24 24 23 22 21 20 19 18 17 17 17 16 15 15 15 15 15 14
29 28 28 26 25 24 24 23 22 22 22 22 23 24 26 26 26 27 27 27 26 25 26 26 26 26 25 24 24 22 20 19 18 19 18 16 16 17 17 17 17 17
31 31 30 29 27 27 26 26 25 24 23 24 24 25 27 27 28 28 29 29 28 28 28 27 28 29 27 26 26 24 23 22 21 21 20 19 19 20 19 19 19 19
34 34 33 32 30 29 29 29 29 27 27 27 27 28 28 29 29 30 30 30 30 31 30 29 31 32 30 28 28 26 25 24 23 23 23 22 22 22 21 20 20 20
39 37 36 34 33 33 33 32 30 29 29 29 29 29 29 29 29 31 32 32 31 31 32 32 34 35 32 31 30 27 26 26 26 25 25 25 24 23 23 22 22 21
38 40 39 37 38 38 36 33 31 29 29 29 28 27 27 28 29 29 30 32 33 33 33 34 36 35 33 33 33 30 27 27 28 28 27 27 26 25 25 24 23 23
30 36 37 35 35 34 34 32 29 28 28 28 26 25 26 28 30 29 28 30 33 35 36 37 37 35 32 33 35 34 31 30 30 29 29 28 28 27 26 26 26 25
23 27 29 28 27 26 26 26 25 24 25 24 23 23 24 25 27 30 32 32 33 34 37 39 38 35 33 34 36 37 35 33 32 30 29 29 29 28 28 28 28 27
23 24 26 25 24 23 22 21 21 21 23 23 21 20 21 23 25 28 32 34 34 33 35 38 39 38 36 36 38 39 37 35 33 32 30 29 29 29 29 29 30 30
23 24 25 25 24 23 21 21 21 22 22 22 20 18 18 21 25 28 31 34 35 36 35 34 36 39 39 38 39 38 37 35 34 33 32 31 29 29 30 30 31 32
24 24 24 24 24 23 23 22 23 23 23 22 20 19 19 19 21 25 27 29 33 38 40 36 35 38 41 41 39 37 35 35 34 34 33 31 30 30 30 30 30 31
26 26 26 26 25 24 24 23 23 23 24 23 22 21 20 19 19 20 21 22 26 32 38 39 39 40 41 41 39 37 36 36 35 35 33 32 32 32 31 30 30 30
Wind_Direction
226 222 218 216 218 218 212 207 209 210 205 206 210 209 205 206 211 211 209 211 209 208 212 218 225 229 230 232 233 235 236 243 248 243 235 228 225 232 246 251 253 255
232 227 224 221 221 222 218 212 214 218 212 209 209 212 218 217 215 215 212 208 207 207 211 215 220 226 228 232 235 235 235 241 249 252 254 252 236 230 239 243 246 250
235 233 231 229 226 225 224 219 217 220 221 221 215 210 221 227 226 227 223 217 215 214 218 220 224 227 229 235 239 240 238 238 244 251 257 257 248 236 238 240 242 247
234 233 234 234 230 228 228 225 220 222 225 231 231 224 226 231 234 237 233 228 225 222 225 228 228 230 233 239 240 241 241 240 245 251 252 254 252 243 243 243 244 246
231 230 231 234 234 233 233 229 225 228 231 233 236 239 242 241 240 241 241 238 233 228 228 231 234 235 234 238 240 240 241 241 240 240 247 256 258 250 248 247 248 250
232 230 229 231 234 236 238 235 229 229 233 234 234 239 246 247 247 247 247 246 242 236 232 231 236 238 236 237 238 238 241 245 244 242 248 259 261 256 255 254 255 258
234 232 230 231 233 236 238 239 235 232 232 233 233 238 245 249 251 252 252 251 251 248 241 232 233 236 238 239 238 236 241 251 258 257 256 261 263 262 263 264 265 266
237 235 233 233 235 237 237 237 237 235 234 234 233 236 241 243 248 254 254 251 249 251 246 239 237 238 239 243 243 240 238 245 258 265 263 264 266 267 267 268 270 271
238 237 235 234 235 238 239 238 237 235 235 235 235 237 239 239 242 249 254 251 246 247 248 246 243 242 241 243 246 246 241 239 246 254 259 263 267 271 271 270 269 271
239 239 237 235 234 236 239 239 239 237 236 235 234 236 240 241 241 242 248 250 245 242 246 246 244 244 243 242 243 244 244 244 245 248 252 258 263 267 269 268 268 269
235 236 237 236 236 236 238 239 240 239 238 239 238 237 240 244 243 241 243 247 246 244 244 245 244 243 242 240 241 242 243 245 248 251 254 255 256 258 256 256 259 263
231 231 232 233 234 236 237 238 240 240 240 242 242 242 243 245 246 246 245 246 247 247 247 247 246 245 242 240 240 240 242 244 245 247 251 254 254 253 251 251 251 255
230 229 229 229 230 232 234 236 238 240 241 242 242 245 249 248 246 247 248 247 248 249 249 250 249 248 247 245 244 243 243 244 244 244 245 247 250 251 250 249 248 251
232 232 233 233 232 232 233 234 235 238 240 241 241 244 249 251 249 247 248 249 250 251 251 251 251 251 250 249 248 247 247 248 248 248 246 244 246 248 249 249 247 248
232 233 235 236 235 235 235 235 236 238 240 242 242 242 245 249 251 251 251 251 251 252 253 252 252 252 252 252 250 249 249 251 252 254 253 250 249 249 249 250 249 248
232 234 235 236 236 238 239 240 241 243 246 247 247 247 247 248 250 252 252 251 250 251 253 254 254 253 251 252 253 252 251 251 252 255 255 253 254 254 252 251 251 251
234 236 238 238 238 240 241 242 244 246 250 252 252 254 253 251 250 250 251 251 250 250 252 253 254 254 253 252 252 252 252 251 251 253 252 252 254 255 253 253 253 254
237 239 241 243 244 245 244 244 245 246 249 252 253 255 256 256 253 251 251 250 249 250 251 252 253 254 254 253 252 251 251 252 251 251 252 253 254 255 255 256 256 257
240 241 242 244 245 247 248 246 245 247 247 249 251 254 258 260 256 252 252 251 250 250 250 251 254 255 254 254 254 253 252 253 253 252 253 254 255 256 257 257 258 260
244 243 244 246 247 248 248 244 242 245 248 248 251 254 258 258 253 251 253 254 253 252 251 251 253 255 256 257 258 256 253 253 254 254 254 255 256 256 257 258 259 259
247 242 242 247 247 245 245 241 237 243 250 252 253 254 254 254 251 250 255 259 258 254 252 252 252 253 255 258 259 258 254 252 253 254 255 257 257 258 258 258 258 258
246 240 239 242 241 240 242 239 236 242 251 254 256 256 253 253 252 248 250 255 257 256 253 253 253 253 252 253 256 258 256 254 254 255 256 258 259 260 261 262 262 261
247 243 241 242 242 242 242 238 237 244 249 252 257 259 255 251 251 251 252 253 251 250 252 254 254 253 251 250 252 254 256 256 256 256 257 258 260 263 264 265 266 266
247 246 244 243 245 246 246 244 245 248 251 252 256 259 258 253 249 250 256 256 248 242 245 251 252 251 250 249 249 250 252 254 255 256 256 257 259 263 265 266 267 268
249 249 247 245 246 248 249 249 249 250 251 253 256 258 259 258 252 248 253 257 253 248 245 244 244 246 247 246 246 246 247 248 249 252 252 253 254 257 260 261 263 266
250 249 249 247 247 249 251 251 251 252 253 253 254 254 255 260 260 253 252 257 259 256 251 247 247 249 248 245 244 246 247 246 246 246 246 248 249 251 254 255 256 260
Height
5947 5948 5948 5949 5950 5950 5951 5952 5952 5953 5954 5954 5955 5955 5956 5957 5957 5958 5958 5959 5959 5960 5960 5960 5961 5961 5961 5962 5962 5963 5963 5964 5964 5965 5965 5965 5966 5966 5967 5967 5967 5967
5946 5947 5948 5949 5949 5950 5951 5952 5952 5953 5954 5954 5955 5956 5956 5957 5957 5957 5958 5958 5959 5960 5960 5960 5961 5961 5961 5962 5962 5963 5963 5964 5964 5965 5966 5965 5966 5966 5967 5967 5967 5967
5945 5946 5947 5948 5949 5950 5951 5951 5952 5953 5954 5954 5955 5956 5956 5957 5957 5957 5958 5958 5959 5959 5960 5960 5960 5961 5961 5962 5962 5963 5963 5964 5964 5965 5965 5966 5965 5966 5966 5967 5967 5967
5943 5945 5946 5947 5948 5950 5950 5951 5951 5952 5953 5954 5955 5956 5956 5956 5957 5957 5958 5958 5958 5959 5959 5960 5960 5960 5961 5961 5962 5963 5963 5964 5964 5964 5965 5966 5965 5965 5966 5966 5967 5967
5942 5944 5945 5946 5947 5949 5950 5950 5951 5952 5953 5953 5954 5955 5956 5956 5957 5957 5957 5958 5958 5958 5959 5959 5960 5960 5961 5961 5962 5963 5964 5964 5964 5965 5965 5966 5965 5965 5966 5966 5966 5966
5941 5943 5944 5945 5946 5947 5948 5949 5951 5952 5952 5952 5952 5953 5954 5955 5956 5956 5957 5957 5957 5958 5958 5959 5959 5960 5960 5961 5962 5963 5963 5963 5964 5964 5965 5965 5965 5965 5965 5965 5965 5966
5940 5941 5943 5944 5945 5946 5947 5948 5950 5951 5951 5951 5951 5952 5953 5954 5954 5955 5956 5957 5957 5958 5958 5958 5959 5960 5960 5960 5961 5962 5962 5962 5963 5963 5964 5964 5965 5965 5965 5965 5965 5965
5938 5940 5941 5942 5943 5944 5945 5947 5948 5950 5950 5950 5951 5951 5952 5952 5954 5954 5955 5956 5957 5957 5957 5958 5959 5959 5960 5960 5960 5961 5962 5962 5962 5962 5963 5963 5964 5964 5964 5964 5964 5965
5937 5938 5940 5941 5942 5942 5944 5945 5947 5948 5949 5950 5950 5951 5951 5951 5952 5954 5954 5956 5957 5957 5957 5957 5958 5958 5959 5959 5960 5960 5961 5962 5962 5962 5962 5963 5963 5963 5963 5963 5964 5964
5935 5936 5938 5939 5940 5941 5942 5943 5945 5947 5948 5948 5949 5950 5950 5950 5951 5952 5953 5954 5955 5956 5956 5956 5957 5957 5957 5958 5959 5959 5960 5961 5962 5962 5962 5962 5962 5962 5962 5963 5963 5963
5932 5934 5935 5937 5939 5940 5941 5942 5943 5944 5945 5946 5948 5949 5949 5949 5950 5951 5951 5952 5953 5954 5954 5955 5955 5955 5956 5957 5957 5958 5959 5960 5960 5961 5961 5961 5961 5961 5962 5962 5962 5963
5930 5931 5932 5934 5935 5937 5938 5939 5941 5942 5943 5944 5945 5946 5947 5948 5949 5949 5950 5951 5952 5952 5953 5953 5953 5954 5954 5955 5956 5956 5957 5958 5959 5959 5960 5960 5960 5960 5960 5961 5961 5961
5927 5928 5929 5931 5932 5934 5935 5937 5938 5939 5940 5942 5943 5944 5945 5946 5947 5948 5948 5949 5950 5950 5951 5951 5952 5952 5953 5953 5954 5955 5955 5956 5956 5957 5958 5959 5959 5959 5959 5960 5960 5960
5926 5926 5927 5928 5930 5931 5932 5934 5935 5936 5938 5939 5940 5942 5942 5943 5945 5946 5947 5948 5948 5948 5949 5949 5950 5950 5951 5952 5952 5953 5954 5954 5955 5955 5956 5957 5957 5958 5958 5958 5959 5959
5923 5924 5925 5926 5927 5928 5930 5931 5932 5934 5935 5936 5937 5939 5939 5940 5941 5943 5944 5946 5946 5946 5946 5947 5947 5948 5948 5949 5950 5951 5952 5953 5953 5953 5954 5955 5955 5956 5956 5957 5957 5957
5920 5921 5922 5923 5925 5926 5927 5928 5930 5931 5932 5933 5935 5935 5936 5937 5938 5939 5941 5942 5943 5943 5943 5944 5944 5944 5945 5946 5947 5948 5949 5950 5951 5951 5951 5952 5953 5953 5954 5954 5955 5955
5917 5918 5919 5921 5922 5923 5924 5925 5926 5928 5929 5930 5931 5933 5933 5934 5935 5936 5937 5938 5939 5940 5940 5941 5941 5941 5942 5943 5944 5945 5946 5947 5948 5948 5948 5950 5951 5951 5951 5952 5952 5952
5913 5915 5916 5918 5919 5920 5921 5922 5922 5924 5925 5926 5927 5929 5930 5931 5932 5933 5934 5934 5935 5936 5937 5938 5938 5937 5938 5939 5940 5942 5943 5943 5944 5945 5945 5947 5947 5948 5948 5949 5950 5950
5910 5911 5913 5915 5916 5916 5917 5918 5919 5920 5921 5922 5923 5925 5926 5927 5927 5929 5930 5931 5931 5932 5933 5934 5934 5934 5935 5936 5936 5939 5940 5940 5941 5942 5942 5943 5944 5945 5946 5947 5947 5948
5906 5908 5909 5911 5912 5912 5913 5914 5915 5916 5917 5918 5919 5921 5922 5922 5922 5923 5925 5927 5928 5929 5929 5929 5929 5930 5932 5933 5933 5935 5937 5937 5938 5938 5939 5939 5941 5942 5943 5943 5944 5945
5902 5903 5906 5908 5908 5908 5909 5910 5910 5912 5913 5914 5916 5918 5918 5918 5918 5919 5921 5923 5924 5925 5926 5925 5924 5927 5930 5930 5930 5931 5933 5934 5934 5935 5936 5936 5937 5938 5939 5940 5941 5942
5898 5900 5903 5905 5904 5905 5906 5906 5907 5909 5910 5911 5912 5913 5915 5915 5916 5917 5918 5918 5919 5921 5921 5920 5921 5924 5926 5926 5926 5927 5928 5930 5932 5932 5933 5934 5934 5935 5937 5937 5938 5939
5896 5898 5900 5901 5901 5902 5903 5904 5905 5906 5906 5907 5908 5910 5911 5912 5913 5913 5913 5914 5915 5915 5915 5915 5917 5919 5921 5922 5921 5922 5924 5926 5928 5930 5931 5931 5932 5933 5934 5935 5936 5936
5894 5895 5896 5897 5898 5899 5900 5901 5902 5903 5903 5904 5905 5907 5908 5908 5909 5909 5910 5910 5910 5909 5909 5911 5913 5913 5915 5916 5916 5916 5919 5921 5923 5926 5927 5928 5929 5929 5930 5931 5932 5932
5891 5892 5893 5894 5895 5896 5897 5898 5899 5900 5900 5901 5902 5904 5905 5905 5905 5906 5906 5906 5906 5904 5904 5907 5908 5907 5907 5909 5910 5911 5913 5915 5917 5920 5922 5924 5924 5924 5925 5927 5928 5929
5887 5889 5890 5892 5893 5894 5894 5895 5896 5896 5897 5898 5899 5901 5901 5901 5902 5902 5902 5903 5903 5901 5900 5901 5902 5902 5902 5904 5905 5906 5908 5910 5912 5915 5917 5918 5918 5919 5920 5922 5924 5926